Location: Cold Norton
(51.6667°N, 0.6667°E)
Time: 06:37:27
(UTC+00:00)

Cosmos 2034 Rocket - Pass Details

Date: 18 November 2025
Orbit: 958 x 998 km, 82.9° (Epoch: 12 December)

Event Time Altitude Azimuth Distance (km) Brightness Sun altitude
Rises 17:56:08 0° 167° (SSE) 3,643 7.0 -17.2°
Reaches altitude 10° 17:58:42 10° 162° (SSE) 2,705 6.2 -17.6°
Maximum altitude 18:04:35 48° 90° (E) 1,261 4.2 -18.5°
Drops below altitude 10° 18:10:34 10° 19° (NNE) 2,750 6.1 -19.4°
Sets 18:13:11 0° 14° (NNE) 3,709 6.8 -19.8°
